STARLINK-4730, 53794

Orbit data source: Space-Track

STARLINK-4730, 53794 is a payload satellite owned by SpaceX/Seattle (US) in LEO that was launched on Sun, 11 Sep 2022 UTC via an FALCON 9 launch vehicle from the Air Force Eastern Test Range (AFETR). Payload-class satellites include a variety of spacecraft equipped with specific instruments for various scientific and technological missions. These include communications satellites like Starlink; space stations such as the ISS; scientific satellites like the Hubble; Earth observation satellites from companies like Planet Labs, Umbra, and HawkEye 360; GPS; miniature CubeSats for education and research; and military/defense satellites.

Loading next visibility...
Identifier
53794, 2022-111X
Orbit
LEO
Country
Flag of USUS
Related business
Manufacturer
SpaceX/Seattle
Mission
Operational Commercial Communications
Bus & Motor
STARLINK, Unknown motor
Mass
305 kg wet, ~290 kg dry
Launch date (UTC)
2022-09-11 (3 years ago)
Launch vehicle
FALCON 9
Launch site
Air Force Eastern Test Range (AFETR)
Object type
Payload
Rocket body
Debris
Shape & HBR
Box + 1 Pan, 10.1 m
Radar Cross Section
13.562 m², Large (>1 m²)

Expand to show TLE details & history
Last TLE update: 11 hours ago

TLE from 11 hours ago
0 STARLINK-4730
1 53794U 22111X   25286.53984020  .00000473  00000-0  47803-4 0  9999
2 53794  53.2173 214.5486 0001365  86.6333 273.4816 15.08844017171474
Epoch: 2025-10-13T12:57Z
TLE epoch observation values (Epoch: 2025-10-13T12:57:22.193Z)
Latitude
0.00004°
Longitude
-2.135°
Altitude
540.571 km
Speed
7.593 km/s
True Right ascension
14h 18m 11s
True Declination
0° 00' 00"
Sunlit
Object was in daylight at epoch
Visualization orbit readout
Latitude
Unknown
Longitude
Unknown
Altitude
Unknown
Speed
Unknown
Apparent Right ascension
Unknown
Apparent Declination
Unknown
Sunlit
N/A
Visualization observer readout
Local Sidereal Time
18:50:41
Azimuth
Unknown
Elevation
Unknown
Doppler factor
Unknown
Orbital elements
Apogee altitude
540.92 km
Perigee altitude
539.032 km
Semi-major axis
6,918.113 km
Eccentricity
0.00014
Inclination
53.2173°
RAAN
214.5486°
Arg. of periapsis
86.6333°
True anomaly
273.46599°
Mean anomaly
273.4816°
Eccentric anomaly
273.47379°
Mean motion
3.77191 °/min
Orbital period
95.44 mins
BSTAR
0.000047803
Loading maneuver chart data...
Computing Atmospheric mass density...
Loading historical data...
Loading historical data...
Loading historical data...
Loading historical data...
Loading historical data...
Loading historical data...
Loading historical data...

Documentation

Showing up to 5 results
|